W9IF-4 Weather Reports


Display with metric or nautical units.
time (UTC)temp
F
wind
direction
speed
MPH
gust
MPH
rain 1hr
in
rain 24hr
in
rain mn
in
humidity
%
barometer
mb
20170923144445 60 111 5.0 0.0 0.00 0.00 0.00 1018.3
20170923144345 60 120 9.0 0.0 0.00 0.00 0.00 1018.3
20170923144245 60 108 3.0 0.0 0.00 0.00 0.00 1018.3
20170923144045 60 132 5.0 0.0 0.00 0.00 0.00 1018.3
20170923143945 60 115 6.0 0.0 0.00 0.00 0.00 1018.3
20170923143845 60 111 6.0 0.0 0.00 0.00 0.00 1018.3
20170923143746 60 110 8.0 0.0 0.00 0.00 0.00 1018.2
20170923143645 60 94 0.0 0.0 0.00 0.00 0.00 1018.2
20170923143545 60 107 4.0 0.0 0.00 0.00 0.00 1018.2
20170923143345 60 87 5.0 0.0 0.00 0.00 0.00 1018.3
20170923143245 60 90 6.0 0.0 0.00 0.00 0.00 1018.2
20170923143145 60 101 7.0 0.0 0.00 0.00 0.00 1018.2
20170923143045 60 131 7.0 0.0 0.00 0.00 0.00 1018.2
20170923142945 60 100 6.0 0.0 0.00 0.00 0.00 1018.1
20170923142845 60 100 6.0 0.0 0.00 0.00 0.00 1018.1
20170923142645 60 98 7.0 0.0 0.00 0.00 0.00 1018.1
20170923142545 60 86 7.0 0.0 0.00 0.00 0.00 1018.1
20170923142345 59 110 6.0 0.0 0.00 0.00 0.00 1018.1
20170923142245 60 86 7.0 0.0 0.00 0.00 0.00 1018.0
20170923142145 59 91 5.0 0.0 0.00 0.00 0.00 1018.0
20170923142045 59 86 7.0 0.0 0.00 0.00 0.00 1018.0
20170923141745 59 77 7.0 0.0 0.00 0.00 0.00 1018.0
20170923141645 59 100 7.0 0.0 0.00 0.00 0.00 1017.9
20170923141545 59 103 7.0 0.0 0.00 0.00 0.00 1018.0
20170923141445 59 79 8.0 0.0 0.00 0.00 0.00 1018.0
20170923141345 59 104 7.0 0.0 0.00 0.00 0.00 1018.0
20170923141245 59 108 7.0 0.0 0.00 0.00 0.00 1017.9
20170923141145 59 87 7.0 0.0 0.00 0.00 0.00 1018.0
20170923141045 59 86 7.0 0.0 0.00 0.00 0.00 1017.9
20170923140945 58 100 8.0 0.0 0.00 0.00 0.00 1017.9
20170923140845 58 122 6.0 0.0 0.00 0.00 0.00 1017.9
20170923140745 58 96 7.0 0.0 0.00 0.00 0.00 1017.9
20170923140645 58 107 6.0 0.0 0.00 0.00 0.00 1017.9
20170923140545 58 100 6.0 0.0 0.00 0.00 0.00 1017.9
20170923140445 58 120 6.0 0.0 0.00 0.00 0.00 1017.9
20170923140345 58 103 7.0 0.0 0.00 0.00 0.00 1017.9
20170923140245 58 100 6.0 0.0 0.00 0.00 0.00 1017.9
20170923140145 58 76 6.0 0.0 0.00 0.00 0.00 1017.9
20170923140045 58 107 8.0 0.0 0.00 0.00 0.00 1017.9
20170923135945 58 120 7.0 0.0 0.00 0.00 0.00 1017.9
20170923135845 58 103 7.0 0.0 0.00 0.00 0.00 1017.9
20170923135745 58 98 7.0 0.0 0.00 0.00 0.00 1017.8
20170923135645 58 113 6.0 0.0 0.00 0.00 0.00 1017.8
20170923135545 58 91 7.0 0.0 0.00 0.00 0.00 1017.8
20170923135445 58 100 6.0 0.0 0.00 0.00 0.00 1017.8
20170923135345 58 118 6.0 0.0 0.00 0.00 0.00 1017.8
20170923135245 58 94 5.0 0.0 0.00 0.00 0.00 1017.8
20170923135045 58 128 5.0 0.0 0.00 0.00 0.00 1017.7
20170923134846 58 121 6.0 0.0 0.00 0.00 0.00 1017.7
20170923134745 58 90 6.0 0.0 0.00 0.00 0.00 1017.7
20170923134545 58 108 7.0 0.0 0.00 0.00 0.00 1017.7
20170923134445 58 100 7.0 0.0 0.00 0.00 0.00 1017.6
20170923134345 58 118 6.0 0.0 0.00 0.00 0.00 1017.7
20170923134245 58 105 6.0 0.0 0.00 0.00 0.00 1017.7
20170923134145 58 129 8.0 0.0 0.00 0.00 0.00 1017.7
20170923134045 58 97 7.0 0.0 0.00 0.00 0.00 1017.6
20170923133945 58 101 7.0 0.0 0.00 0.00 0.00 1017.7
20170923133846 58 134 7.0 0.0 0.00 0.00 0.00 1017.7
20170923133745 58 90 7.0 0.0 0.00 0.00 0.00 1017.7
20170923133645 58 100 7.0 0.0 0.00 0.00 0.00 1017.7
20170923133545 58 86 6.0 0.0 0.00 0.00 0.00 1017.7
20170923133445 57 91 8.0 0.0 0.00 0.00 0.00 1017.7
20170923133345 58 108 7.0 0.0 0.00 0.00 0.00 1017.7
20170923133245 58 91 7.0 0.0 0.00 0.00 0.00 1017.6
20170923133145 58 101 7.0 0.0 0.00 0.00 0.00 1017.7
20170923133045 58 93 7.0 0.0 0.00 0.00 0.00 1017.6
20170923132845 58 91 6.0 0.0 0.00 0.00 0.00 1017.6
20170923132745 58 79 7.0 0.0 0.00 0.00 0.00 1017.6
20170923132645 58 113 6.0 0.0 0.00 0.00 0.00 1017.6
20170923132545 58 115 6.0 0.0 0.00 0.00 0.00 1017.6
20170923132445 58 96 7.0 0.0 0.00 0.00 0.00 1017.5
20170923132345 58 104 6.0 0.0 0.00 0.00 0.00 1017.5
20170923132245 58 104 6.0 0.0 0.00 0.00 0.00 1017.5
20170923132145 58 93 8.0 0.0 0.00 0.00 0.00 1017.5
20170923132045 58 96 7.0 0.0 0.00 0.00 0.00 1017.5
20170923131946 58 82 8.0 0.0 0.00 0.00 0.00 1017.5
20170923131846 58 89 7.0 0.0 0.00 0.00 0.00 1017.5
20170923131745 58 93 7.0 0.0 0.00 0.00 0.00 1017.5
20170923131645 58 114 6.0 0.0 0.00 0.00 0.00 1017.5
20170923131545 58 98 5.0 0.0 0.00 0.00 0.00 1017.5
20170923131345 58 89 6.0 0.0 0.00 0.00 0.00 1017.5
20170923131245 58 90 7.0 0.0 0.00 0.00 0.00 1017.5
20170923131045 58 121 6.0 0.0 0.00 0.00 0.00 1017.5
20170923130945 58 103 8.0 0.0 0.00 0.00 0.00 1017.5
20170923130845 58 101 7.0 0.0 0.00 0.00 0.00 1017.5
20170923130745 58 115 7.0 0.0 0.00 0.00 0.00 1017.4
20170923130645 58 97 7.0 0.0 0.00 0.00 0.00 1017.5
20170923130545 58 91 7.0 0.0 0.00 0.00 0.00 1017.5
20170923130445 58 104 7.0 0.0 0.00 0.00 0.00 1017.5
20170923130345 58 113 6.0 0.0 0.00 0.00 0.00 1017.5
20170923130245 58 87 5.0 0.0 0.00 0.00 0.00 1017.5
20170923130145 58 115 6.0 0.0 0.00 0.00 0.00 1017.5
20170923130045 58 96 6.0 0.0 0.00 0.00 0.00 1017.5
20170923125945 58 101 5.0 0.0 0.00 0.00 0.00 1017.4
20170923125845 58 103 5.0 0.0 0.00 0.00 0.00 1017.4
20170923125745 58 91 6.0 0.0 0.00 0.00 0.00 1017.5
20170923125645 58 104 6.0 0.0 0.00 0.00 0.00 1017.5
20170923125545 58 103 5.0 0.0 0.00 0.00 0.00 1017.4
20170923125446 58 100 5.0 0.0 0.00 0.00 0.00 1017.4
20170923125346 58 96 6.0 0.0 0.00 0.00 0.00 1017.4
20170923125245 58 98 7.0 0.0 0.00 0.00 0.00 1017.4
20170923125145 58 113 6.0 0.0 0.00 0.00 0.00 1017.4
20170923125045 58 93 7.0 0.0 0.00 0.00 0.00 1017.4
20170923124846 58 96 7.0 0.0 0.00 0.00 0.00 1017.4
20170923124745 58 101 6.0 0.0 0.00 0.00 0.00 1017.4
20170923124645 58 90 6.0 0.0 0.00 0.00 0.00 1017.3
20170923124545 58 90 7.0 0.0 0.00 0.00 0.00 1017.3
20170923124445 58 87 7.0 0.0 0.00 0.00 0.00 1017.3
20170923124345 58 96 7.0 0.0 0.00 0.00 0.00 1017.3
20170923124245 58 89 8.0 0.0 0.00 0.00 0.00 1017.3
20170923124145 58 89 7.0 0.0 0.00 0.00 0.00 1017.3
20170923124045 58 104 7.0 0.0 0.00 0.00 0.00 1017.3
20170923123946 58 121 6.0 0.0 0.00 0.00 0.00 1017.3
20170923123845 58 68 7.0 0.0 0.00 0.00 0.00 1017.3
20170923123745 58 97 5.0 0.0 0.00 0.00 0.00 1017.2
20170923123645 58 90 7.0 0.0 0.00 0.00 0.00 1017.2
20170923123545 58 93 6.0 0.0 0.00 0.00 0.00 1017.2
20170923123445 58 103 7.0 0.0 0.00 0.00 0.00 1017.2
20170923123345 58 98 6.0 0.0 0.00 0.00 0.00 1017.2
20170923123245 58 97 7.0 0.0 0.00 0.00 0.00 1017.2
20170923123145 58 96 4.0 0.0 0.00 0.00 0.00 1017.2
20170923123045 58 111 5.0 0.0 0.00 0.00 0.00 1017.2
20170923122945 58 101 6.0 0.0 0.00 0.00 0.00 1017.2
20170923122845 58 97 7.0 0.0 0.00 0.00 0.00 1017.2
20170923122745 58 98 7.0 0.0 0.00 0.00 0.00 1017.2
20170923122645 58 72 6.0 0.0 0.00 0.00 0.00 1017.2
20170923122545 58 93 7.0 0.0 0.00 0.00 0.00 1017.2
20170923122445 58 87 7.0 0.0 0.00 0.00 0.00 1017.2
20170923122345 58 83 8.0 0.0 0.00 0.00 0.00 1017.2
20170923122245 59 98 7.0 0.0 0.00 0.00 0.00 1017.2
20170923122145 59 98 5.0 0.0 0.00 0.00 0.00 1017.2
20170923122045 58 84 6.0 0.0 0.00 0.00 0.00 1017.2
20170923121945 58 105 6.0 0.0 0.00 0.00 0.00 1017.2
20170923121846 59 96 7.0 0.0 0.00 0.00 0.00 1017.2
20170923121745 59 120 5.0 0.0 0.00 0.00 0.00 1017.2
20170923121645 59 101 6.0 0.0 0.00 0.00 0.00 1017.2
20170923121545 59 105 6.0 0.0 0.00 0.00 0.00 1017.2
20170923121445 59 101 5.0 0.0 0.00 0.00 0.00 1017.2
20170923121345 59 101 6.0 0.0 0.00 0.00 0.00 1017.2
20170923121245 59 96 4.0 0.0 0.00 0.00 0.00 1017.2
20170923121145 59 90 6.0 0.0 0.00 0.00 0.00 1017.2
20170923121045 59 94 5.0 0.0 0.00 0.00 0.00 1017.2
20170923120945 59 90 5.0 0.0 0.00 0.00 0.00 1017.2
20170923120845 59 84 4.0 0.0 0.00 0.00 0.00 1017.2
20170923120745 59 91 5.0 0.0 0.00 0.00 0.00 1017.2
20170923120645 59 90 6.0 0.0 0.00 0.00 0.00 1017.2
20170923120545 59 94 5.0 0.0 0.00 0.00 0.00 1017.2
20170923120445 59 77 4.0 0.0 0.00 0.00 0.00 1017.2
20170923120345 59 118 3.0 0.0 0.00 0.00 0.00 1017.2
20170923120245 59 93 5.0 0.0 0.00 0.00 0.00 1017.2
20170923120145 59 105 4.0 0.0 0.00 0.00 0.00 1017.1
20170923120045 59 110 6.0 0.0 0.00 0.00 0.00 1017.1
20170923115945 59 94 5.0 0.0 0.00 0.00 0.00 1017.1
20170923115845 59 114 5.0 0.0 0.00 0.00 0.00 1017.1
20170923115745 59 107 5.0 0.0 0.00 0.00 0.00 1017.1
20170923115645 59 90 4.0 0.0 0.00 0.00 0.00 1017.1
20170923115545 59 113 5.0 0.0 0.00 0.00 0.00 1017.1
20170923115445 59 89 6.0 0.0 0.00 0.00 0.00 1017.1
20170923115345 59 98 6.0 0.0 0.00 0.00 0.00 1017.2
20170923115245 59 349 0.0 0.0 0.00 0.00 0.00 1017.1
20170923115145 59 349 0.0 0.0 0.00 0.00 0.00 1017.1
20170923115045 59 349 0.0 0.0 0.00 0.00 0.00 1017.1
20170923114945 59 349 0.0 0.0 0.00 0.00 0.00 1017.1
20170923114846 59 349 0.0 0.0 0.00 0.00 0.00 1017.1
20170923114745 59 349 0.0 0.0 0.00 0.00 0.00 1017.1
20170923114645 59 349 0.0 0.0 0.00 0.00 0.00 1017.1
20170923114545 59 349 0.0 0.0 0.00 0.00 0.00 1017.1
20170923114445 59 349 0.0 0.0 0.00 0.00 0.00 1017.1
20170923114345 59 349 0.0 0.0 0.00 0.00 0.00 1017.1
20170923114245 59 349 0.0 0.0 0.00 0.00 0.00 1017.1
20170923114145 59 349 0.0 0.0 0.00 0.00 0.00 1017.1
20170923114045 59 349 0.0 0.0 0.00 0.00 0.00 1017.1
20170923113945 59 349 0.0 0.0 0.00 0.00 0.00 1017.1
20170923113845 59 349 0.0 0.0 0.00 0.00 0.00 1017.1
20170923113745 59 349 0.0 0.0 0.00 0.00 0.00 1017.1
20170923113645 59 349 0.0 0.0 0.00 0.00 0.00 1017.2
20170923113545 59 349 0.0 0.0 0.00 0.00 0.00 1017.2
20170923113445 59 349 0.0 0.0 0.00 0.00 0.00 1017.2
20170923113345 59 349 0.0 0.0 0.00 0.00 0.00 1017.2
20170923113245 59 349 0.0 0.0 0.00 0.00 0.00 1017.2
20170923113145 59 349 0.0 0.0 0.00 0.00 0.00 1017.2
20170923113045 59 349 0.0 0.0 0.00 0.00 0.00 1017.2
20170923112945 59 349 0.0 0.0 0.00 0.00 0.00 1017.2
20170923112845 59 349 0.0 0.0 0.00 0.00 0.00 1017.2
20170923112745 59 349 0.0 0.0 0.00 0.00 0.00 1017.2
20170923112645 59 349 0.0 0.0 0.00 0.00 0.00 1017.1
20170923112545 59 349 0.0 0.0 0.00 0.00 0.00 1017.1
20170923112445 59 349 0.0 0.0 0.00 0.00 0.00 1017.2
20170923112345 60 349 0.0 0.0 0.00 0.00 0.00 1017.1
20170923112245 60 349 0.0 0.0 0.00 0.00 0.00 1017.1
20170923112145 60 349 0.0 0.0 0.00 0.00 0.00 1017.1
20170923112045 60 349 0.0 0.0 0.00 0.00 0.00 1017.1
20170923111945 60 349 0.0 0.0 0.00 0.00 0.00 1017.1
20170923111845 60 349 0.0 0.0 0.00 0.00 0.00 1017.2
20170923111745 60 349 0.0 0.0 0.00 0.00 0.00 1017.2
20170923111645 60 349 0.0 0.0 0.00 0.00 0.00 1017.2
20170923111545 60 349 0.0 0.0 0.00 0.00 0.00 1017.2
20170923111445 60 349 0.0 0.0 0.00 0.00 0.00 1017.2
20170923111345 60 349 0.0 0.0 0.00 0.00 0.00 1017.2
20170923111245 60 349 0.0 0.0 0.00 0.00 0.00 1017.3
20170923111145 60 349 0.0 0.0 0.00 0.00 0.00 1017.2
20170923111045 60 349 0.0 0.0 0.00 0.00 0.00 1017.3
20170923110945 59 349 0.0 0.0 0.00 0.00 0.00 1017.2
20170923110845 59 349 0.0 0.0 0.00 0.00 0.00 1017.3
20170923110745 59 349 0.0 0.0 0.00 0.00 0.00 1017.3
20170923110645 59 349 0.0 0.0 0.00 0.00 0.00 1017.3
20170923110545 59 349 0.0 0.0 0.00 0.00 0.00 1017.3
20170923110445 59 349 0.0 0.0 0.00 0.00 0.00 1017.3
20170923110345 60 349 0.0 0.0 0.00 0.00 0.00 1017.3
20170923110245 60 349 0.0 0.0 0.00 0.00 0.00 1017.3
20170923110145 59 349 0.0 0.0 0.00 0.00 0.00 1017.2
20170923110045 59 349 0.0 0.0 0.00 0.00 0.00 1017.2
20170923105945 59 349 0.0 0.0 0.00 0.00 0.00 1017.2
20170923105845 59 349 0.0 0.0 0.00 0.00 0.00 1017.2
20170923105745 60 349 0.0 0.0 0.00 0.00 0.00 1017.2
20170923105545 60 349 0.0 0.0 0.00 0.00 0.00 1017.2
20170923105445 60 349 0.0 0.0 0.00 0.00 0.00 1017.2
20170923105345 60 349 0.0 0.0 0.00 0.00 0.00 1017.3
20170923105245 60 349 0.0 0.0 0.00 0.00 0.00 1017.2
20170923105145 60 349 0.0 0.0 0.00 0.00 0.00 1017.2
20170923105045 60 349 0.0 0.0 0.00 0.00 0.00 1017.2
20170923104945 60 349 0.0 0.0 0.00 0.00 0.00 1017.2
20170923104845 60 349 0.0 0.0 0.00 0.00 0.00 1017.2
20170923104745 60 349 0.0 0.0 0.00 0.00 0.00 1017.3
20170923104645 60 349 0.0 0.0 0.00 0.00 0.00 1017.2
20170923104545 60 349 0.0 0.0 0.00 0.00 0.00 1017.3